(102) Miriam
ephemeris date magn radius delta ra dec elong phase
Today12 Jun 202615.53.112 AU3.730 AU08h31m+14°41'46.0°13.6°
Opposition22 Mar 202714.13.333 AU2.338 AU12h00m-03°59'176.4°1.1°
(102) Miriam - 2026-06-12
astro.vanbuitenen.nl


 
-1 year
-1 month
-1 day
Now
+1 day
+1 month
+1 year

The interactive orbit chart above shows the body's path through the solar system and its position at the given date. Green and blue lines are shown perpendicular to the ecliptic plane: Green if the path is above the ecliptic plane, blue if it is below. (Left-click and drag to rotate the view; Right-click and drag to move the view; Use scroll wheel to zoom in our out.)

The orbital elements of Miriam are:

            e (Eccentricity)                : 0.2519999
            a (Semimajor axis)              : 2.6637415
            i (Inclination)                 : 5.17229
            Ω (Longitude of ascending node) : 210.61796
            ω (Argument of perihelion)      : 147.57477
            M (Mean anomaly)                : 120.43419
            Epoch                           : 2026 Jun 09

            L (Longitude of perihelion)     : 178.29845
            B (Latitude of perihelion)      : 2.77069
            P (Orbital period in years)     : 4.35            
        

The light curve chart below shows the estimated development of the minor planet's magnitude.


The all-sky chart below shows the path of the minor planet over the same period as the light curve. The current position is marked yellow.





The following chart shows the path of the minor planet in the next few days. The field of view is optimized for (~10x50) binoculars and finderscopes.




Ephemerides:
Date       Time       RA (2000)    DEC (2000)    delta   radius  elong  phase   PA    magn
2026-06-12 00:00 UT   08 31 39.1   +14 41 21     3.730    3.112   46.0   13.6   108   15.5 
2026-06-12 05:48 UT   08 31 57.7   +14 40 25     3.733    3.112   45.9   13.5   108   15.5 
2026-06-13 00:00 UT   08 32 56.2   +14 37 31     3.742    3.113   45.4   13.4   108   15.5 
2026-06-14 00:00 UT   08 34 13.5   +14 33 38     3.753    3.115   44.7   13.3   108   15.5 
2026-06-15 00:00 UT   08 35 31.0   +14 29 41     3.765    3.117   44.1   13.1   109   15.5 
2026-06-16 00:00 UT   08 36 48.6   +14 25 41     3.776    3.118   43.5   13.0   109   15.5 
2026-06-17 00:00 UT   08 38 06.4   +14 21 37     3.787    3.120   42.8   12.8   109   15.5 
2026-06-18 00:00 UT   08 39 24.4   +14 17 30     3.799    3.122   42.2   12.6   109   15.5 
2026-06-19 00:00 UT   08 40 42.6   +14 13 19     3.810    3.123   41.6   12.5   109   15.6 
2026-06-20 00:00 UT   08 42 00.8   +14 09 05     3.821    3.125   41.0   12.3   110   15.6 
2026-06-21 00:00 UT   08 43 19.3   +14 04 48     3.831    3.127   40.3   12.1   110   15.6 
2026-06-22 00:00 UT   08 44 37.8   +14 00 27     3.842    3.128   39.7   12.0   110   15.6 
2026-06-23 00:00 UT   08 45 56.5   +13 56 02     3.853    3.130   39.1   11.8   110   15.6 
2026-06-24 00:00 UT   08 47 15.3   +13 51 35     3.863    3.132   38.5   11.6   110   15.6 
2026-06-25 00:00 UT   08 48 34.2   +13 47 04     3.873    3.133   37.8   11.5   111   15.6 
2026-06-26 00:00 UT   08 49 53.2   +13 42 29     3.883    3.135   37.2   11.3   111   15.6 
2026-06-27 00:00 UT   08 51 12.3   +13 37 52     3.893    3.136   36.6   11.1   111   15.6 
2026-06-28 00:00 UT   08 52 31.6   +13 33 11     3.903    3.138   36.0   11.0   111   15.6 
2026-06-29 00:00 UT   08 53 50.9   +13 28 27     3.913    3.140   35.4   10.8   111   15.6 
2026-06-30 00:00 UT   08 55 10.3   +13 23 40     3.923    3.141   34.7   10.6   112   15.6 
2026-07-01 00:00 UT   08 56 29.8   +13 18 50     3.932    3.143   34.1   10.5   112   15.6 
2026-07-02 00:00 UT   08 57 49.3   +13 13 57     3.942    3.144   33.5   10.3   112   15.6 
2026-07-03 00:00 UT   08 59 09.0   +13 09 00     3.951    3.146   32.9   10.1   112   15.6 
2026-07-04 00:00 UT   09 00 28.7   +13 04 00     3.960    3.148   32.3    9.9   112   15.6 
2026-07-05 00:00 UT   09 01 48.5   +12 58 58     3.969    3.149   31.7    9.8   113   15.6 
2026-07-06 00:00 UT   09 03 08.4   +12 53 52     3.978    3.151   31.0    9.6   113   15.6 
2026-07-07 00:00 UT   09 04 28.3   +12 48 43     3.986    3.152   30.4    9.4   113   15.5 


    Terminology:
            
    delta:  distance between minor planet and earth in AU
    radius: distance between minor planet and sun in AU
    magn:   magnitude (brightness) estimate    
    ra:     right ascension in hours (24h = 360deg)
    dec:    declination in degrees
    elong:  elongation in degrees (angle sun-earth-minor planet)    
    phase:  phase angle in degrees (angle sun-minor planet-earth)        
    AU:     Astronomical Unit (mean distance between earth and sun: 149597870.7 km
    

Orbital elements provided by the MPC (Minor Planet Center).
Calculations by a modified version of AAPlus, a C# implementation of the AA+ project by PJ Naughter from the algorithms presented in the book "Astronomical Algorithms" by Jean Meeus.
NGC2000 dso catalog and star labels from VizieR as provided by the Strasbourg astronomical Data Center.
Tycho2 catalog from the ESO archive.